Home > Time Zones > World Clock > Weather > Cuba > Havana > Past weeks

Flag for Cuba Weather past 2 weeks in Havana, Cuba

Now
90 °F

Partly sunny.


Feels Like: 96 °F
Forecast: 79 / 90 °F
Wind: 10 mph from Southeast

Location: Aeropuerto Jose Marti - Rancho-Boyeros - Habana

Current Time: Aug 29, 2014 at 2:36:11 PM

Latest Report: Aug 29, 2014 at 1:55 PM


Visibility: N/A

Pressure: 29.98 "Hg

Humidity: 55%

Dew point: 72 °F

Location of HavanaLocation

Historic Weather in Havana — Graph

°F

Havana temperature yesterday

Maximum temperature yesterday: 90 °F (at 2:55 PM)
Minimum temperature yesterday: 75 °F (at 12:55 AM)
Average temperature yesterday: 81 °F

Past Weeks' High & Low Weather Summary

 TemperatureHumidityPressure
High93 °F (Aug 14, 1:55 PM)94% (Aug 15, 5:55 AM)30.09 "Hg (Aug 15, 5:55 AM)
Low70 °F (Aug 22, 5:55 AM)41% (Aug 14, 1:55 PM)29.74 "Hg (Aug 25, 4:55 PM)
Average81 °F74%29.98 "Hg
* Reported Aug 14 12:55 PM — Aug 29 12:55 PM, Havana, Weather by CustomWeather, © 2014

Note: Actual official high and low records may vary slightly from our data, if they occured in-between our weather recording intervals... More about our weather records

Advertising

Havana weather history for previous 24 hours

 ConditionsComfort  
Time TempWeatherWind HumidityBarometerVisibility
12:55 PM
Aug 29
90 °FPartly sunny.8 mph59%30.01 "HgN/A
11:55 AM88 °FScattered clouds.9 mph62%30.01 "HgN/A
10:55 AM88 °FPassing clouds.8 mph62%30.01 "HgN/A
9:55 AM84 °FPassing clouds.6 mph70%30.01 "HgN/A
8:55 AM82 °FPassing clouds.5 mph74%30.01 "Hg6 mi
7:55 AM77 °FPassing clouds.5 mph83%30.01 "Hg6 mi
6:55 AM77 °FPassing clouds.6 mph83%30.01 "Hg6 mi
5:55 AM73 °FPassing clouds.3 mph89%29.98 "Hg6 mi
4:55 AM73 °FPassing clouds.2 mph89%29.98 "Hg6 mi
3:55 AM73 °FPassing clouds.No wind89%29.98 "Hg6 mi
2:55 AM75 °FPassing clouds.3 mph83%30.01 "Hg6 mi
1:55 AM75 °FPassing clouds.2 mph89%30.01 "Hg6 mi
12:55 AM75 °FPassing clouds.3 mph89%30.01 "Hg6 mi
11:55 PM
Aug 28
77 °FPassing clouds.5 mph83%30.04 "Hg6 mi
10:55 PM77 °FPassing clouds.5 mph83%30.01 "Hg6 mi
9:55 PM81 °FPassing clouds.8 mph74%30.01 "Hg6 mi
8:55 PM81 °FPassing clouds.1 mph84%29.98 "Hg6 mi
7:55 PM82 °FScattered clouds.6 mph74%29.98 "Hg6 mi
6:55 PM86 °FScattered clouds.9 mph62%29.95 "Hg6 mi
5:55 PM88 °FScattered clouds.9 mph55%29.95 "Hg6 mi
4:55 PM90 °FScattered clouds.12 mph55%29.95 "Hg6 mi
3:55 PM88 °FScattered clouds.12 mph59%29.95 "Hg6 mi
2:55 PM90 °FScattered clouds.12 mph55%29.98 "Hg6 mi
Weather by CustomWeather, © 2014

See weather overviewHow to use our weather pages